Regional Weather Roundup
Issued by NWS Wakefield, VA

Home | Current Version | Previous Version | Text Only | Print | Product List | Glossary Off
Versions: 1 2 3 4 5 6 7 8 9 10 11 12 13 14 15 16 17 18 19 20 21 22 23 24 25 26 27

000
ASUS41 KAKQ 281115
RWRAKQ

REGIONAL WEATHER ROUNDUP
NATIONAL WEATHER SERVICE WAKEFIELD VA
700 AM EDT WED JUN 28 2017

Note: "fair" indicates few or no clouds below 12,000 feet with no
significant weather and/or obstructions to visibility. * = Denotes
station may not report precipitation (e.g., rain,snow,etc.),
thunder or fog.

VAZ042-051-052>054-056-281200-
NORTHERN VIRGINIA

CITY           SKY/WX    TMP DP  RH WIND       PRES   REMARKS
WASH NATIONAL  MOSUNNY   63  51  65 W5        30.17R
DULLES         SUNNY     57  50  77 SW3       30.18R
FORT BELVOIR   SUNNY     55  51  89 CALM      30.17R
QUANTICO       SUNNY     58  54  86 NW10      30.19R
FREDERICKSBRG* SUNNY     56  54  93 CALM      30.18R
STAFFORD*      SUNNY     51  51 100 NW3       30.22R
WARRENTON      SUNNY     54  49  85 CALM      30.19R
CULPEPER*      SUNNY     52  52  99 CALM      30.20R
MANASSAS*      SUNNY     53  51  93 CALM      30.19R
LEESBURG*      SUNNY     59  52  77 CALM      30.19R
WINCHESTER     SUNNY     52  48  87 CALM      30.18R
FRONT ROYAL*   SUNNY     54  48  82 S7        30.18R
LURAY*         SUNNY     52  50  93 CALM      30.20R
$$

VAZ048-049-060>072-079>083-281200-
CENTRAL AND SOUTH CENTRAL VIRGINIA

CITY           SKY/WX    TMP DP  RH WIND       PRES   REMARKS
RICHMOND       SUNNY     61  55  81 CALM      30.18R
CHESTERFIELD*  FAIR      56  53  90 NW3       30.18R
PETERSBURG*    SUNNY     55  54  99 CALM      30.18R
HANOVER        SUNNY     56  52  86 CALM      30.19R
TAPPAHANNOCK*  SUNNY     56  56 100 CALM      30.18R
QUINTON*       FAIR      56  55  99 W6        30.17R
CHARLOTTSVILLE SUNNY     56  52  86 CALM      30.20R
GORDONSVILLE*  SUNNY     51  51  97 CALM      30.19R
ORANGE*        SUNNY     52  50  93 CALM      30.19R
LOUISA*        SUNNY     54  52  94 CALM      30.19R
BUMPASS*       FAIR      52  52  99 CALM      30.19R
FARMVILLE*     SUNNY     54  52  93 CALM      30.19R
CREWE*         FAIR      53  49  87 CALM      30.18R
FORT PICKETT*  FAIR      58  54  88 CALM      30.18R
CHASE CITY*    FAIR      56  56  99 N3        30.19R
CLARKSVILLE*   FAIR      57  55  94 CALM      30.19R
SOUTH HILL*    SUNNY     56  55  95 N3        30.24R
LAWRENCEVILLE* FAIR      59  53  81 CALM      30.18R
EMPORIA*       SUNNY     57  54  88 CALM      30.19R
$$

VAZ088>098-281200-
SOUTHEAST VIRGINIA

CITY           SKY/WX    TMP DP  RH WIND       PRES   REMARKS
NORFOLK        SUNNY     71  56  58 NE12      30.15R
VIRGINIA BEACH MOSUNNY   67  55  65 NE10      30.14R
NORFOLK NAVAL  SUNNY     72  57  59 NE8       30.16R
WEST POINT*    SUNNY     56  55  97 CALM      30.18R
SALUDA*        FAIR      67  56  67 N5        30.16R
NEWPORT NEWS   SUNNY     65  54  67 N5        30.16R
LANGLEY AFB    SUNNY     67  58  71 CALM      30.15R
FORT EUSTIS    SUNNY     68  52  57 N5        30.14R
WILLIAMSBURG*  MOSUNNY   63  57  82 CALM      30.17R
HR EXEC AP*    FAIR      63  57  82 NE3       30.14R
FRANKLIN*      SUNNY     61  55  82 CALM      30.16R
US460-WAKEFLD  SUNNY     57  56  96 CALM      30.17R
$$

VAZ020-022-025-037-045-281200-
WEST CENTRAL AND SOUTHWEST VIRGINIA

CITY           SKY/WX    TMP DP  RH WIND       PRES   REMARKS
STAUNTON*      SUNNY     47  46  96 CALM      30.24R
WAYNESBORO*    SUNNY     49  48  99 CALM      30.22R
HOT SPRINGS VA CLEAR     50  39  66 CALM      30.26R
LYNCHBURG      SUNNY     53  50  89 CALM      30.21R
DANVILLE       CLEAR     54  54 100 CALM      30.20R
SOUTH BOSTON*  FAIR      53  52  95 CALM      30.20R
MARTINSVILLE   CLEAR     50  49  98 CALM      30.23R
ROANOKE        CLEAR     52  49  89 CALM      30.24R
BLACKSBURG     CLEAR     49  47  93 CALM      30.27R
DUBLIN*        CLEAR     49  45  84 S3        30.26R
MARION*        CLEAR     47  44  89 CALM      30.27R
HILLSVILLE*    CLEAR     50  45  83 CALM      30.24R
RICHLANDS*     FAIR      54  20  27 CALM      30.24S
WISE*          CLEAR     59  45  58 CALM      30.22F
ABINGDON*      CLEAR     54  50  86 E6        30.23R
$$

MDZ021>025-VAZ099-100-281200-
SOUTHERN MARYLAND AND THE DELMARVA PENINSULA

CITY           SKY/WX    TMP DP  RH WIND       PRES   REMARKS
PATUXENT RIVER MOSUNNY   64  56  75 W6        30.16R
BAY BRIDGE APT SUNNY     68  52  56 N3        30.15R
LEONARDTOWN    MOSUNNY   55  52  88 CALM      30.18R
DOVER          SUNNY     62  55  78 NW6       30.13R
GEORGETOWN     SUNNY     59  54  83 CALM      30.15R
EASTON         SUNNY     61  54  77 CALM      30.18R
CAMBRIDGE      SUNNY     57  54  88 CALM      30.15S
SALISBURY      SUNNY     57  56  96 CALM      30.15R
OCEAN CITY     SUNNY     62  53  72 NW7       30.14R
WALLOPS ISLAND SUNNY     62  54  74 N5        30.15R
ACCOMACK*      SUNNY     65  54  66 N6        30.15R
$$

NCZ012>017-030>032-281200-
NORTH CENTRAL AND EASTERN NORTH CAROLINA

CITY           SKY/WX    TMP DP  RH WIND       PRES   REMARKS
ROANOKE RAPIDS FAIR      57  55  94 CALM      30.17R
RALEIGH        PTCLDY    60  55  83 NE7       30.18R
ELIZABETH CITY SUNNY     67  63  87 N12       30.14R
AHOSKIE*         N/A     58  55  89 CALM      30.16R
EDENTON*       SUNNY     64  59  85 CALM      30.14R
CURRITUCK*     SUNNY     66  65  99 N9        30.14R
KILL DEVIL HLS SUNNY     70  61  73 N6        30.11R
MANTEO         SUNNY     69  61  76 NE6       30.13R
CAPE HATTERAS  NOT AVBL
TARBORO*       NOT AVBL
GOLDSBORO      SUNNY     64  60  88 N8        30.14R
WASHINGTON       N/A    N/A N/A N/A CALM      30.15R
GREENVILLE     SUNNY     61  57  88 CALM      30.16R
NEW BERN       SUNNY     65  62  90 CALM      30.14S
WILMINGTON     CLEAR     67  59  75 NE3       30.13R
$$

VAZ048-281200-
ELSEWHERE

CITY           SKY/WX    TMP DP  RH WIND       PRES   REMARKS
HARRISBURG PA  MOSUNNY   58  52  80 CALM      30.15R
BALTIMORE      MOSUNNY   58  53  84 W5        30.15R
ANNAPOLIS      SUNNY     62  57  83 CALM      30.15R
ANDREWS AFB    SUNNY     56  52  85 CALM      30.16R
PHILADELPHIA   MOSUNNY   63  49  60 NW9       30.14R
HENDERSON NC   SUNNY     55  51  87 CALM      30.19R
GREENSBORO     PTCLDY    60  53  77 NE6       30.19R
ROCKY MOUNT    SUNNY     62  57  83 NE5       30.17R
$$

VAZ100-281200-
MARINE

STATION/POSITION TIME  TEMP    WIND        PRES    WAVE   SWELL
                       AIR SEA DIR/SP/G            HT/PER HT/PER
                 (UTC) (F)     (DEG/KT/KT) (MB)    (FT/S) (FT/S)
BRANDYWINE LGT   1042   68     360/ 17/ 21 1020.5R
CAPE MAY NJ      1048   69 71   20/  1/  8 1020.0R
LEWES DE         1042   64 70  270/  6/  7 1020.4R
15NM E FENWICK I 1050   67 66  330/ 14/ 16 1020.6R   2/ 4
OCEAN-CITY-INLET 1048   66 67  360/  9/ 11 1020.8R
WACHAPREAGUE VA  1048   66 76   40/  4/  6 1020.8R
THOMAS POINT MD  1100   67 76  340/  7/  8   N/A
GOOSES REEF MD   1050   71      40/ 10/ 14 1021.7R
COVE POINT MD    1048   71      30/  9/ 14 1021.7R
SOLOMONS ISLAND  1042   67 78  320/  5/  6   N/A
BISHOPS HEAD MD  1048   69 76   30/  6/ 10 1021.0R
PINEY POINT MD   1042           10/  5/  6   N/A
POTOMAC MD       1050   72      20/  6/ 10 1020.3R
CAMBRIDGE MD     1048   69 79              1021.5R
LEWISETTA VA     1048   71 77   30/  5/  7 1021.1R
RAPPAHANNOCK LGT 1042           20/ 15/ 18 1021.4R
STINGRAY PT      1050   73      50/ 12/ 16 1020.6R
YORK RVR RNG VA  1048   71      10/ 13/ 15 1021.0R
YORKTOWN VA      1048   68 78  350/  8/ 10 1020.8R
JAMESTOWN VA     1050   66     330/  2/  4   N/A
DOMINION TERM VA 1048   71      CALM  /  3 1021.1R
KIPTOPEKE VA     1042      72   40/  4/  7   N/A
CHES BAY BRIDGE  1048   71 76   60/ 16/ 18 1020.7R
CAPE HENRY VA    1048   69      40/ 12/ 15   N/A
WILLOUBY STN VA  1048   72      50/ 11/ 12 1020.8R
S CRANEY ISL VA  1048   72      60/ 10/ 13 1020.5R
CAPE HENRY BUOY  1030      71                N/A     2/ 3
1ST LANDING BUOY 1050   72                 1021.2R
CAPE CHARLES BUO 1051      66                N/A     2/ 3
64NM E OF VA BCH 1050   72 74   20/ 17/ 19 1020.1R   1/ 8   2/ 8
DUCK PIER NC     1048   72 74   10/ 13/ 16 1019.4R
44100 DUCK FRF   1035      72                N/A     2/ 8
OREGON INLET NC  1036   70 73  330/  5/  6 1019.6R
HATTERAS NC      1048   76 78  360/ 14/ 17 1019.5R
DIAMOND SHLS NC  1050   77 79   30/ 10/ 12 1019.1R   2/ 6   2/ 6
CAPE LOOKOUT NC  1000   74      10/  9/ 10 1019.3R
$$




USA.gov is the U.S. government's official web portal to all federal, state and local government web resources and services.